Location: Ergnies
(50.0854°N, 2.0375°E)
Time: 15:30:34
(UTC+00:00)

Cosmos 1862 Rocket - Pass Details

Date: 14 January 2026
Orbit: 596 x 627 km, 82.5° (Epoch: 18 February)

Event Time Altitude Azimuth Distance (km) Brightness Sun altitude
Rises 06:36:08 0° 346° (NNW) 2,890 6.7 -10.8°
Reaches altitude 10° 06:38:24 10° 342° (NNW) 1,975 5.8 -10.4°
Maximum altitude 06:42:40 56° 265° (W) 722 3.6 -9.8°
Drops below altitude 10° 06:46:52 10° 187° (S) 1,942 6.3 -9.2°
Sets 06:49:05 0° 183° (S) 2,836 7.2 -8.8°
